GOG weather

Gobabis Airport
Gobabis, Omaheke Region, Namibia

Public forecast

Using degrees Celsius for public forecast. Weather courtesy of forecast.io.

METAR (pilot weather report)

Retrieved 2019/05/26 02:00 UTC (22 minutes ago):

FYGB 260200Z AUTO 00000KT //// // ////// 07/M00 Q1026

TAF (pilot weather forecast)

Forecast is more than 12 hours old.

Closest forecast is Witvlei Airport, 29.1 nm (53.9 km) WNW. Retrieved 2016/01/22 06:00 UTC (3 years ago):

TAF COR FYWI 220621Z 2206/2312 15009KT 9999 BKN030 BECMG 2217/2219 24005KT CAVOK